Вернуться в каталог

O3B FM15

АктивенСвязьMEO
NORAD 43231·PAYLOAD·🇱🇺 Luxembourg

Запущен Mar 9, 2018 с Guiana Space Centre

Loading…

Ближайшие Пролёты (ближайшие 24 часа)

TLE

СвежийSource: CelesTrak SupGP

Эпоха: Sep 13, 2026, 18:00 UTC

1 43231C 18024A   26256.75000000  .00000000  00000+0  00000+0 0  2565
2 43231   0.0562 356.6200 0002577 177.0814  16.7283  5.00115951    14

Отслеживайте O3B FM15 в реальном времени с AllMySat

Download on the App Store